This is the latest recevied weather packets stored in our database for station/object OH2TH. If no packets are shown the sender has not sent any weather packets the latest 10 day(s).
| Time | Temp. | Humidity | Pressure | Rain* | Wind** | Luminosity | Snow |
|---|---|---|---|---|---|---|---|
| 1777481102 | 9.44° C | 31% | 102 hPa | - | - | - | - |
| 1777480202 | 9.44° C | 28% | 102 hPa | - | - | - | - |
| 1777479302 | 10° C | 28% | 102 hPa | - | - | - | - |
| 1777478401 | 10° C | 28% | 102 hPa | - | - | - | - |
| 1777477501 | 10° C | 26% | 102 hPa | - | - | - | - |
| 1777476601 | 10° C | 28% | 102 hPa | - | - | - | - |
| 1777475701 | 11.11° C | 26% | 102 hPa | - | - | - | - |
| 1777474801 | 11.11° C | 25% | 102 hPa | - | - | - | - |
| 1777473900 | 11.11° C | 24% | 102 hPa | - | - | - | - |
| 1777473005 | 11.11° C | 25% | 102 hPa | - | - | - | - |
| 1777472105 | 11.11° C | 25% | 102 hPa | - | - | - | - |
| 1777471205 | 11.11° C | 24% | 102 hPa | - | - | - | - |
| 1777470305 | 11.11° C | 25% | 102 hPa | - | - | - | - |
| 1777469404 | 11.11° C | 24% | 102 hPa | - | - | - | - |
| 1777468504 | 11.11° C | 26% | 102 hPa | - | - | - | - |
| 1777467604 | 10.56° C | 26% | 102 hPa | - | - | - | - |
| 1777466704 | 10.56° C | 27% | 102 hPa | - | - | - | - |
| 1777465804 | 10.56° C | 27% | 102 hPa | - | - | - | - |
| 1777464904 | 10.56° C | 27% | 102 hPa | - | - | - | - |
| 1777464003 | 10° C | 27% | 102 hPa | - | - | - | - |
| 1777463103 | 10° C | 27% | 102 hPa | - | - | - | - |
| 1777462203 | 10° C | 28% | 102 hPa | - | - | - | - |
| 1777461303 | 10° C | 30% | 102 hPa | - | - | - | - |
| 1777460403 | 8.89° C | 30% | 102 hPa | - | - | - | - |
| 1777459503 | 8.89° C | 30% | 102 hPa | - | - | - | - |
* Rain since midnight (hover to see other rain measurements)
** Current wind speed in m/s (hover to see current wind gust speed)